Regional Weather Roundup
Issued by NWS

Home | Current Version | Previous Version | Graphics & Text | Print | Product List | Glossary On
Versions: 1 2 3 4 5 6 7 8 9 10 11 12 13 14 15 16 17 18 19 20 21 22 23 24 25 26 27 28 29 30 31 32 33 34 35 36 37 38 39 40 41 42 43 44 45 46 47 48 49 50
000
ASUS43 KDMX 221901
RWRIA

WEATHER ROUNDUP FOR IOWA
NATIONAL WEATHER SERVICE DES MOINES IA
200 PM CDT SAT JUL 22 2017

NOTE: "FAIR" INDICATES FEW OR NO CLOUDS BELOW 12,000 FEET WITH NO
SIGNIFICANT WEATHER AND/OR OBSTRUCTIONS TO VISIBILITY.

* - THESE STATIONS ARE NOT NWS STATIONS...THUS NOT UNDER NWS
QUALITY CONTROL.  THEY ALSO DO NOT REPORT WEATHER SUCH
AS PRECIPITATION OR FOG.

IAZ001>003-012>014-020>022-031>034-043>046-222000-
   NORTHWEST IOWA

CITY           SKY/WX    TMP DP  RH WIND       PRES   REMARKS
CARROLL *      PTSUNNY   84  77  79 N9        29.86F HX  94
CHEROKEE *     CLOUDY    86  75  69 NW8       29.88S HX  94
DENISON *      SUNNY     86  75  70 N10G16    29.88S HX  95
ORANGE CITY *  CLOUDY    81  75  83 NW12      29.92R HX  86
SHELDON *      CLOUDY    82  73  74 NW10      29.89S HX  88
SIOUX CITY     CLOUDY    81  75  82 NW15      29.90R HX  87
SPENCER        MOSUNNY   87  73  62 NW12      29.88S HX  94
STORM LAKE *   CLOUDY    86  73  66 NE8       29.88F HX  93
$$

IAZ055>058-069>071-079>083-090>094-222000-
   SOUTHWEST IOWA

CITY           SKY/WX    TMP DP  RH WIND       PRES   REMARKS
ATLANTIC *     MOSUNNY   86  77  74 NE12      29.86S HX  97
AUDUBON *      SUNNY     86  79  79 N8        29.87F HX  99
CLARINDA *     MOSUNNY   91  82  75 N8G15     29.85S HX 114
COUNCIL BLFS * SUNNY     88  77  70 N10G17    29.86S HX 100
CRESTON *      MOSUNNY   88  77  70 NE14G21   29.86S HX 100
HARLAN  *      MOSUNNY   86  79  79 N8        29.90R HX  99
LAMONI         SUNNY     94  78  60 W10       29.81F HX 110
RED OAK *      MOSUNNY   90  79  70 N13       29.85S HX 105
SHENANDOAH *   SUNNY     90  77  66 N10       29.84S HX 102
$$

IAZ047>049-059>061-072>074-084-222000-
   CENTRAL IOWA

CITY           SKY/WX    TMP DP  RH WIND       PRES   REMARKS
AMES           MOSUNNY   85  74  69 NE14      29.84F HX  92
ANKENY *       PTSUNNY   84  75  74 N10       29.84F HX  92
BOONE *        PTSUNNY   84  73  70 NE10      29.85S HX  91
CHARITON *     MOSUNNY   91  77  62 N14G21    29.82S HX 105
DES MOINES     PTSUNNY   88  75  65 N12       29.83S HX  97
GRINNELL*      CLOUDY    81  74  79 N8        29.86S HX  85
KNOXVILLE *    MOSUNNY   86  73  66 N8        29.82S HX  93
MARSHALLTOWN   CLOUDY    80  74  81 N7        29.84F HX  85
NEWTON *       CLOUDY    82  73  74 N10       29.85R HX  88
PELLA *        MOSUNNY   88  74  62 N5        29.84S HX  96
$$

IAZ004>006-015-016-023>025-035-036-222000-
   NORTH CENTRAL IOWA

CITY           SKY/WX    TMP DP  RH WIND       PRES   REMARKS
ALGONA *       MOSUNNY   81  73  78 CALM      29.87F HX  85
CLARION *      CLOUDY    81  75  83 N8        29.86S HX  86
ESTHERVILLE    MOSUNNY   83  73  72 N7        29.87S HX  89
FORT DODGE *   PTSUNNY   81  72  74 NE8       29.88S HX  84
MASON CITY     PTSUNNY   81  71  71 VRB7      29.87S HX  85
FOREST CITY *    N/A     81  70  69 N5        29.86S HX  84
WEBSTER CITY * CLOUDY    82  72  69 N7G14     29.84F HX  87
IOWA FALLS *     N/A     82  72  72 NE6       29.86F HX  87
$$

IAZ007>011-017>019-026>030-037>042-050>054-066-222000-
   NORTHEAST IOWA

CITY           SKY/WX    TMP DP  RH WIND       PRES   REMARKS
CEDAR RAPIDS   CLOUDY    80  75  84 NW3       29.83S HX  85
CHARLES CITY * CLOUDY    75  75 100 CALM      29.86F
DECORAH *      PTSUNNY   79  72  78 CALM      29.84S HX  82
DUBUQUE        CLOUDY    79  72  79 W5        29.85S HX  82
MONTICELLO *   CLOUDY    79  73  83 CALM      29.84S HX  82
OELWEIN *        N/A    N/A N/A N/A MISG        N/A
WATERLOO       CLOUDY    79  72  79 NW5       29.83F HX  82
$$

IAZ064-065-067-068-078-222000-
   EAST CENTRAL IOWA

CITY           SKY/WX    TMP DP  RH WIND       PRES   REMARKS
DAVENPORT      PTSUNNY   82  73  74 W6        29.85S HX  87
IOWA CITY      CLOUDY    84  75  74 CALM      29.83S HX  92
MUSCATINE *    CLOUDY    86  75  70 VRB6      29.81F HX  95
QUAD CITIES    MOSUNNY   85  73  67 SW7       29.81F HX  91
$$

IAZ062-063-075>077-085>089-095>099-222000-
   SOUTHEAST IOWA

CITY           SKY/WX    TMP DP  RH WIND       PRES   REMARKS
BURLINGTON     MOSUNNY   87  78  74 W7        29.81F HX 100
FAIRFIELD *    MOSUNNY   88  77  70 VRB5      29.80F HX 100
FORT MADISON * MOSUNNY   88  79  74 S5        29.82S HX 102
KEOKUK *       MOSUNNY   91  77  62 SW5       29.80S HX 105
OSKALOOSA *    PTSUNNY   89  76  66 NW8       29.82S HX 101
OTTUMWA        PTSUNNY   92  76  59 N9        29.80S HX 104
WASHINGTON *   CLOUDY    86  77  74 CALM      29.82F HX  97
$$

ABBREVIATIONS USED IN REMARKS
   TC - TEMPERATURES IN CELSIUS
  WCI - WIND CHILL INDEX
   HX - HEAT INDEX
  VSB - VISIBILITY
$$




USA.gov is the U.S. government's official web portal to all federal, state and local government web resources and services.